Regional Weather Roundup
Issued by NWS Cleveland, OH

Home | Current Version | Previous Version | Graphics & Text | Print | Product List | Glossary On
Versions: 1 2 3 4 5 6 7 8 9 10 11 12 13 14 15 16 17 18 19 20 21 22 23 24 25 26 27 28 29 30 31 32 33 34 35 36 37 38 39 40 41 42 43 44 45 46 47 48 49 50
444
ASUS41 KCLE 270202
RWRCLE
OHIO REGIONAL WEATHER ROUNDUP
NATIONAL WEATHER SERVICE CLEVELAND, OH
1000 PM EDT THU APR 26 2018

NOTE: "FAIR" INDICATES FEW OR NO CLOUDS BELOW 12,000 FEET WITH NO
SIGNIFICANT WEATHER AND/OR OBSTRUCTIONS TO VISIBILITY.

OHZ001>008-015>018-024>027-034-035-043-044-270300-
   NORTHWEST OHIO

CITY           SKY/WX    TMP DP  RH WIND       PRES   REMARKS
DEFIANCE       FAIR      51  38  60 S3        29.86R
FINDLAY        FAIR      55  39  54 CALM      29.85S
TOLEDO EXPRESS FAIR      54  36  50 E5        29.85S
TOLEDO EXEC    FAIR      49  39  68 SE7       29.87S
LIMA           FAIR      54  40  59 NE5       29.86S
$$

OHZ009>014-019>023-028>033-038-089-270300-
   NORTHEAST OHIO

CITY           SKY/WX    TMP DP  RH WIND       PRES   REMARKS
CLE-HOPKINS    FAIR      49  33  54 E6        29.90F
CLE-LAKEFRONT  FAIR      50  33  52 SE3       29.88F
CUY CO. ARPT   PTCLDY    46  37  71 SE7       29.89F
LORAIN-ELYRIA  FAIR      48  32  53 NE7       29.88F
ASHTABULA      FAIR      42  36  79 CALM      29.90F
AKRON-CANTON   FAIR      50  38  63 NE8       29.88S
WOOSTER        FAIR      49  40  71 NE6       29.88S
MANSFIELD      FAIR      49  40  71 NE7       29.87S
YOUNGSTOWN     MOCLDY    48  36  63 N3        29.89S
$$

OHZ042-051>053-060>062-070>072-077>081-270300-
  SOUTHWEST OHIO

CITY           SKY/WX    TMP DP  RH WIND       PRES   REMARKS
CINC-COVINGTON MOCLDY    58  36  43 CALM      29.84S
CINC-LUNKEN    FAIR      55  47  74 CALM      29.85R
HAMILTON       FAIR      55  44  66 CALM      29.85S
DAYTON         MOCLDY    54  39  57 CALM      29.85S
WRIGHT-PAT AFB MOCLDY    56  44  63 CALM      29.84S
DAYTON GENERAL FAIR      58  37  45 CALM      29.84S
WILMINGTON     FAIR      61  36  39 N5        29.85R
$$

OHZ036-037-039>041-045>050-054>059-063>069-073>076-082>088-270300-
  CENTRAL AND SOUTHEAST OHIO

CITY           SKY/WX    TMP DP  RH WIND       PRES   REMARKS
COLUMBUS       CLOUDY    58  43  57 NE5       29.85R
OSU AIRPORT    FAIR      57  41  55 NE5       29.85R
BOLTON FIELD   FAIR      56  45  68 CALM      29.85S
RICKENBACK AFB NOT AVBL
NEWARK         CLOUDY    56  46  69 CALM      29.85R
MARION         FAIR      53  41  63 NE7       29.87R
LANCASTER      MOCLDY    57  47  69 SE3       29.85S
ZANESVILLE     FAIR      56  41  57 SE3       29.86S
NEW PHILLY     NOT AVBL
$$




USA.gov is the U.S. government's official web portal to all federal, state and local government web resources and services.